User: anonymous   Login
Location: Unspecified
(0.0000°N, 0.0000°E)
Time: 14:50:48
(UTC+02:00)
Language:

Cosmos 1515 Rocket - Orbit

View from above orbital plane
View from above orbital plane
View from above satellite
View from above satellite

Ground track
Ground track

The orbit data is extracted from the following two-line orbital elements,

1 14552U 83122B   16181.15470614  .00000079  00000-0  67192-5 0  9994
2 14552  82.5242  47.1123 0015866 240.8500 119.1127 14.83341677756841
Epoch (UTC): 29 June 2016 03:42:46
Eccentricity: 0.0015866
inclination: 82.5242°
perigee height: 608 km
apogee height: 630 km
right ascension of ascending node: 47.1123°
argument of perigee: 240.8500°
revolutions per day: 14.83341677
mean anomaly at epoch: 119.1127°
orbit number at epoch: 75684

The dashed part of the orbit path shows where the satellite is in the earth's shadow,  

DLR